Time,TemperatureF,DewpointF,PressureIn,WindDirection,WindDirectionDegrees,WindSpeedMPH,WindSpeedGustMPH,Humidity,HourlyPrecipIn,Conditions,Clouds,dailyrainin,SoftwareType,DateUTC
2012-10-14 00:00:00,56.7,55.2,30.07,ENE,67,0.0,0.0,95,0.00,,,0.00,WUHU21623XXSP,2012-10-14 07:00:00,
2012-10-14 00:05:00,56.7,55.2,30.07,SE,135,0.0,0.0,95,0.00,,,0.00,WUHU21623XXSP,2012-10-14 07:05:00,
2012-10-14 00:10:00,56.7,55.2,30.07,SSE,157,0.0,0.0,95,0.00,,,0.00,WUHU21623XXSP,2012-10-14 07:10:00,
2012-10-14 00:15:00,56.5,55.0,30.07,SE,135,0.0,0.0,95,0.00,,,0.00,WUHU21623XXSP,2012-10-14 07:15:00,
2012-10-14 00:20:00,56.5,55.0,30.07,SE,135,0.0,0.0,95,0.00,,,0.00,WUHU21623XXSP,2012-10-14 07:20:00,
2012-10-14 00:25:00,56.5,55.0,30.07,SSE,157,0.0,0.0,95,0.00,,,0.00,WUHU21623XXSP,2012-10-14 07:25:00,
2012-10-14 00:30:00,56.5,55.0,30.07,SE,135,0.0,0.0,95,0.00,,,0.00,WUHU21623XXSP,2012-10-14 07:30:00,
2012-10-14 00:35:00,56.5,55.0,30.06,ESE,112,0.0,0.0,95,0.00,,,0.00,WUHU21623XXSP,2012-10-14 07:35:00,
2012-10-14 00:40:00,56.5,55.0,30.06,ESE,112,0.0,0.0,95,0.00,,,0.00,WUHU21623XXSP,2012-10-14 07:40:00,
2012-10-14 00:45:00,56.5,55.0,30.06,SE,135,0.0,0.0,95,0.00,,,0.00,WUHU21623XXSP,2012-10-14 07:45:00,
2012-10-14 00:50:00,56.5,55.0,30.06,SE,135,0.0,0.0,95,0.00,,,0.00,WUHU21623XXSP,2012-10-14 07:50:00,
2012-10-14 00:55:00,56.5,55.0,30.05,SE,135,0.0,0.0,95,0.00,,,0.00,WUHU21623XXSP,2012-10-14 07:55:00,
2012-10-14 01:00:00,56.5,55.0,30.05,SSE,157,0.0,0.0,95,0.00,,,0.00,WUHU21623XXSP,2012-10-14 08:00:00,
2012-10-14 01:05:00,56.5,55.0,30.05,SE,135,0.0,0.0,95,0.00,,,0.00,WUHU21623XXSP,2012-10-14 08:05:00,
2012-10-14 01:10:00,56.5,55.0,30.05,SE,135,0.0,0.0,95,0.00,,,0.00,WUHU21623XXSP,2012-10-14 08:10:00,
2012-10-14 01:15:00,56.5,55.0,30.05,ESE,112,0.0,0.0,95,0.00,,,0.00,WUHU21623XXSP,2012-10-14 08:15:00,
2012-10-14 01:20:00,56.5,55.0,30.05,ESE,112,0.0,0.0,95,0.00,,,0.00,WUHU21623XXSP,2012-10-14 08:20:00,
2012-10-14 01:25:00,56.5,55.0,30.05,NE,45,0.0,0.0,95,0.00,,,0.00,WUHU21623XXSP,2012-10-14 08:25:00,
2012-10-14 01:30:00,56.3,54.9,30.05,ESE,112,0.0,0.0,95,0.00,,,0.00,WUHU21623XXSP,2012-10-14 08:30:00,
2012-10-14 01:35:00,56.3,54.9,30.05,SE,135,0.0,0.0,95,0.00,,,0.00,WUHU21623XXSP,2012-10-14 08:35:00,
2012-10-14 01:40:00,56.3,54.9,30.05,SW,225,0.0,0.0,95,0.00,,,0.00,WUHU21623XXSP,2012-10-14 08:40:00,
2012-10-14 01:45:00,56.3,54.9,30.05,East,90,0.0,0.0,95,0.00,,,0.00,WUHU21623XXSP,2012-10-14 08:45:00,
2012-10-14 01:50:00,56.3,54.9,30.05,SE,135,0.0,0.0,95,0.00,,,0.00,WUHU21623XXSP,2012-10-14 08:50:00,
2012-10-14 01:55:00,56.3,54.9,30.05,South,180,0.0,0.0,95,0.00,,,0.00,WUHU21623XXSP,2012-10-14 08:55:00,
2012-10-14 02:00:00,56.3,54.9,30.04,SSW,202,0.0,0.0,95,0.00,,,0.00,WUHU21623XXSP,2012-10-14 09:00:00,
2012-10-14 02:05:00,56.3,54.9,30.04,SSW,202,0.0,0.0,95,0.00,,,0.00,WUHU21623XXSP,2012-10-14 09:05:00,
2012-10-14 02:10:00,56.5,55.0,30.04,SSE,157,0.0,0.0,95,0.00,,,0.00,WUHU21623XXSP,2012-10-14 09:10:00,
2012-10-14 02:15:00,56.3,54.9,30.04,NNE,22,0.0,0.0,95,0.00,,,0.00,WUHU21623XXSP,2012-10-14 09:15:00,
2012-10-14 02:20:00,56.3,54.9,30.05,ENE,67,0.0,0.0,95,0.00,,,0.00,WUHU21623XXSP,2012-10-14 09:20:00,
2012-10-14 02:25:00,56.3,54.9,30.05,NE,45,0.0,0.0,95,0.00,,,0.00,WUHU21623XXSP,2012-10-14 09:25:00,
2012-10-14 02:30:00,56.3,54.9,30.05,NNE,22,0.0,0.0,95,0.00,,,0.00,WUHU21623XXSP,2012-10-14 09:30:00,
2012-10-14 02:35:00,56.3,54.9,30.05,SW,225,0.0,0.0,95,0.00,,,0.00,WUHU21623XXSP,2012-10-14 09:35:00,
2012-10-14 02:40:00,56.3,54.9,30.05,SW,225,0.0,0.0,95,0.00,,,0.00,WUHU21623XXSP,2012-10-14 09:40:00,
2012-10-14 02:45:00,56.1,54.7,30.04,SW,225,0.0,0.0,95,0.00,,,0.00,WUHU21623XXSP,2012-10-14 09:45:00,
2012-10-14 02:50:00,56.1,54.7,30.04,South,180,0.0,0.0,95,0.00,,,0.00,WUHU21623XXSP,2012-10-14 09:50:00,
2012-10-14 02:55:00,56.1,54.7,30.04,South,180,0.0,0.0,95,0.00,,,0.00,WUHU21623XXSP,2012-10-14 09:55:00,
2012-10-14 03:00:00,56.1,54.7,30.03,SSE,157,0.0,0.0,95,0.00,,,0.00,WUHU21623XXSP,2012-10-14 10:00:00,
2012-10-14 03:05:00,56.1,54.7,30.02,SSE,157,0.0,0.0,95,0.00,,,0.00,WUHU21623XXSP,2012-10-14 10:05:00,
2012-10-14 03:10:00,56.1,54.7,30.02,NE,45,0.0,0.0,95,0.00,,,0.00,WUHU21623XXSP,2012-10-14 10:10:00,
2012-10-14 03:15:00,56.1,54.7,30.02,ENE,67,0.0,0.0,95,0.00,,,0.00,WUHU21623XXSP,2012-10-14 10:15:00,
2012-10-14 03:20:00,56.1,54.7,30.02,ENE,67,0.0,0.0,95,0.00,,,0.00,WUHU21623XXSP,2012-10-14 10:20:00,
2012-10-14 03:25:00,56.1,54.7,30.03,ENE,67,0.0,0.0,95,0.00,,,0.00,WUHU21623XXSP,2012-10-14 10:25:00,
2012-10-14 03:30:00,56.1,54.7,30.02,ENE,67,0.0,0.0,95,0.00,,,0.00,WUHU21623XXSP,2012-10-14 10:30:00,
2012-10-14 03:35:00,56.1,54.7,30.02,ENE,67,0.0,0.0,95,0.00,,,0.00,WUHU21623XXSP,2012-10-14 10:35:00,
2012-10-14 03:40:00,56.1,54.7,30.01,ENE,67,0.0,0.0,95,0.00,,,0.00,WUHU21623XXSP,2012-10-14 10:40:00,
2012-10-14 03:45:00,56.1,54.7,30.01,NNE,22,0.0,0.0,95,0.00,,,0.00,WUHU21623XXSP,2012-10-14 10:45:00,
2012-10-14 03:50:00,56.1,54.7,30.01,ENE,67,0.0,0.0,95,0.00,,,0.00,WUHU21623XXSP,2012-10-14 10:50:00,
2012-10-14 03:55:00,56.1,54.7,30.01,ENE,67,0.0,0.0,95,0.00,,,0.00,WUHU21623XXSP,2012-10-14 10:55:00,
2012-10-14 04:00:00,56.1,54.7,30.01,ENE,67,0.0,0.0,95,0.00,,,0.00,WUHU21623XXSP,2012-10-14 11:00:00,
2012-10-14 04:05:00,55.9,54.5,30.01,ENE,67,0.0,0.0,95,0.00,,,0.00,WUHU21623XXSP,2012-10-14 11:05:00,
2012-10-14 04:10:00,56.1,54.7,30.01,ENE,67,0.0,0.0,95,0.00,,,0.00,WUHU21623XXSP,2012-10-14 11:10:00,
2012-10-14 04:15:00,56.1,54.5,30.01,ESE,112,0.0,0.0,95,0.00,,,0.00,WUHU21623XXSP,2012-10-14 11:15:00,
2012-10-14 04:20:00,56.1,54.7,30.00,East,90,0.0,0.0,95,0.00,,,0.00,WUHU21623XXSP,2012-10-14 11:20:00,
2012-10-14 04:25:00,56.1,54.7,29.99,East,90,0.0,0.0,95,0.00,,,0.00,WUHU21623XXSP,2012-10-14 11:25:00,
2012-10-14 04:30:00,56.1,54.7,29.99,NE,45,0.0,0.0,95,0.00,,,0.00,WUHU21623XXSP,2012-10-14 11:30:00,
2012-10-14 04:35:00,55.9,54.5,29.99,ENE,67,0.0,0.0,95,0.00,,,0.00,WUHU21623XXSP,2012-10-14 11:35:00,
2012-10-14 04:40:00,55.9,54.8,29.99,ENE,67,0.0,0.0,96,0.00,,,0.00,WUHU21623XXSP,2012-10-14 11:40:00,
2012-10-14 04:45:00,55.9,54.8,30.00,ENE,67,0.0,0.0,96,0.00,,,0.00,WUHU21623XXSP,2012-10-14 11:45:00,
2012-10-14 04:50:00,55.9,54.8,30.00,ENE,67,0.0,0.0,96,0.00,,,0.00,WUHU21623XXSP,2012-10-14 11:50:00,
2012-10-14 04:55:00,55.9,54.8,29.99,ENE,67,0.0,0.0,96,0.00,,,0.00,WUHU21623XXSP,2012-10-14 11:55:00,
2012-10-14 05:00:00,55.9,54.8,29.99,ENE,67,0.0,0.0,96,0.00,,,0.00,WUHU21623XXSP,2012-10-14 12:00:00,
2012-10-14 05:05:00,55.9,54.8,29.99,ENE,67,0.0,0.0,96,0.00,,,0.00,WUHU21623XXSP,2012-10-14 12:05:00,
2012-10-14 05:10:00,55.9,54.8,29.99,ENE,67,0.0,0.0,96,0.00,,,0.00,WUHU21623XXSP,2012-10-14 12:10:00,
2012-10-14 05:15:00,55.9,54.8,29.99,ESE,112,0.0,0.0,96,0.00,,,0.00,WUHU21623XXSP,2012-10-14 12:15:00,
2012-10-14 05:20:00,55.9,54.8,29.99,East,90,0.0,0.0,96,0.00,,,0.00,WUHU21623XXSP,2012-10-14 12:20:00,
2012-10-14 05:25:00,55.9,54.8,29.98,ESE,112,0.0,0.0,96,0.00,,,0.00,WUHU21623XXSP,2012-10-14 12:25:00,
2012-10-14 05:30:00,55.9,54.8,29.98,ESE,112,0.0,0.0,96,0.00,,,0.00,WUHU21623XXSP,2012-10-14 12:30:00,
2012-10-14 05:35:00,55.9,54.8,29.99,SE,135,0.0,0.0,96,0.00,,,0.00,WUHU21623XXSP,2012-10-14 12:35:00,
2012-10-14 05:40:00,55.9,54.8,29.99,SE,135,0.0,0.0,96,0.00,,,0.00,WUHU21623XXSP,2012-10-14 12:40:00,
2012-10-14 05:45:00,55.9,54.8,29.98,SE,135,0.0,0.0,96,0.00,,,0.00,WUHU21623XXSP,2012-10-14 12:45:00,
2012-10-14 05:50:00,55.9,54.8,29.98,SE,135,0.0,0.0,96,0.00,,,0.00,WUHU21623XXSP,2012-10-14 12:50:00,
2012-10-14 05:55:00,55.9,54.8,29.98,ESE,112,0.0,0.0,96,0.00,,,0.00,WUHU21623XXSP,2012-10-14 12:55:00,
2012-10-14 06:00:00,55.9,54.8,29.98,NE,45,0.0,0.0,96,0.00,,,0.00,WUHU21623XXSP,2012-10-14 13:00:00,
2012-10-14 06:05:00,56.1,55.0,29.97,ESE,112,0.0,0.0,96,0.00,,,0.00,WUHU21623XXSP,2012-10-14 13:05:00,
2012-10-14 06:10:00,56.1,55.0,29.98,ESE,112,0.0,0.0,96,0.00,,,0.00,WUHU21623XXSP,2012-10-14 13:10:00,
2012-10-14 06:15:00,56.1,55.0,29.97,ESE,112,0.0,0.0,96,0.00,,,0.00,WUHU21623XXSP,2012-10-14 13:15:00,
2012-10-14 06:20:00,56.1,54.8,29.97,ESE,112,0.0,0.0,96,0.00,,,0.00,WUHU21623XXSP,2012-10-14 13:20:00,
2012-10-14 06:25:00,56.1,55.0,29.97,ESE,112,0.0,0.0,96,0.00,,,0.00,WUHU21623XXSP,2012-10-14 13:25:00,
2012-10-14 06:30:00,56.1,55.0,29.97,ESE,112,0.0,0.0,96,0.00,,,0.00,WUHU21623XXSP,2012-10-14 13:30:00,
2012-10-14 06:35:00,56.1,55.0,29.97,NE,45,0.0,0.0,96,0.00,,,0.00,WUHU21623XXSP,2012-10-14 13:35:00,
2012-10-14 06:40:00,56.1,55.0,29.96,NE,45,0.0,0.0,96,0.00,,,0.00,WUHU21623XXSP,2012-10-14 13:40:00,
2012-10-14 06:45:00,56.1,55.0,29.96,ESE,112,0.0,0.0,96,0.00,,,0.00,WUHU21623XXSP,2012-10-14 13:45:00,
2012-10-14 06:50:00,56.1,55.0,29.96,ESE,112,0.0,0.0,96,0.00,,,0.00,WUHU21623XXSP,2012-10-14 13:50:00,
2012-10-14 06:55:00,56.1,55.0,29.96,ESE,112,0.0,0.0,96,0.00,,,0.00,WUHU21623XXSP,2012-10-14 13:55:00,
2012-10-14 07:00:00,56.1,55.0,29.96,ESE,112,0.0,0.0,96,0.00,,,0.00,WUHU21623XXSP,2012-10-14 14:00:00,
2012-10-14 07:05:00,56.1,55.0,29.95,ESE,112,0.0,0.0,96,0.00,,,0.00,WUHU21623XXSP,2012-10-14 14:05:00,
2012-10-14 07:10:00,56.1,55.0,29.95,ESE,112,0.0,0.0,96,0.00,,,0.00,WUHU21623XXSP,2012-10-14 14:10:00,
2012-10-14 07:15:00,56.1,55.0,29.94,ESE,112,0.0,0.0,96,0.00,,,0.00,WUHU21623XXSP,2012-10-14 14:15:00,
2012-10-14 07:20:00,56.1,55.0,29.94,ESE,112,0.0,0.0,96,0.00,,,0.00,WUHU21623XXSP,2012-10-14 14:20:00,
2012-10-14 07:25:00,56.1,55.0,29.93,SE,135,0.0,0.0,96,0.00,,,0.00,WUHU21623XXSP,2012-10-14 14:25:00,
2012-10-14 07:30:00,56.1,55.0,29.93,SE,135,0.0,0.0,96,0.00,,,0.00,WUHU21623XXSP,2012-10-14 14:30:00,
2012-10-14 07:35:00,56.1,55.0,29.93,ESE,112,0.0,0.0,96,0.00,,,0.00,WUHU21623XXSP,2012-10-14 14:35:00,
2012-10-14 07:40:00,56.1,55.1,29.93,ESE,112,0.0,0.0,96,0.00,,,0.00,WUHU21623XXSP,2012-10-14 14:40:00,
2012-10-14 07:45:00,56.1,55.0,29.93,NE,45,0.0,0.0,96,0.00,,,0.00,WUHU21623XXSP,2012-10-14 14:45:00,
2012-10-14 07:50:00,56.3,55.1,29.93,ESE,112,0.0,0.0,96,0.00,,,0.00,WUHU21623XXSP,2012-10-14 14:50:00,
2012-10-14 07:55:00,56.3,55.1,29.93,SE,135,0.0,0.0,96,0.00,,,0.00,WUHU21623XXSP,2012-10-14 14:55:00,
2012-10-14 08:00:00,56.3,55.1,29.93,SE,135,0.0,0.0,96,0.00,,,0.00,WUHU21623XXSP,2012-10-14 15:00:00,
2012-10-14 08:05:00,56.3,55.1,29.93,SE,135,0.0,0.0,96,0.00,,,0.00,WUHU21623XXSP,2012-10-14 15:05:00,
2012-10-14 08:10:00,56.3,55.1,29.93,NE,45,0.0,0.0,96,0.00,,,0.00,WUHU21623XXSP,2012-10-14 15:10:00,
2012-10-14 08:15:00,56.3,55.1,29.93,NE,45,0.0,0.0,96,0.00,,,0.00,WUHU21623XXSP,2012-10-14 15:15:00,
2012-10-14 08:20:00,56.3,55.1,29.93,NE,45,0.0,0.0,96,0.00,,,0.00,WUHU21623XXSP,2012-10-14 15:20:00,
2012-10-14 08:25:00,56.3,55.1,29.92,ENE,67,0.0,0.0,96,0.00,,,0.00,WUHU21623XXSP,2012-10-14 15:25:00,
2012-10-14 08:30:00,56.3,55.1,29.93,ENE,67,0.0,0.0,96,0.00,,,0.00,WUHU21623XXSP,2012-10-14 15:30:00,
2012-10-14 08:35:00,56.3,55.1,29.93,ENE,67,0.0,0.0,96,0.00,,,0.00,WUHU21623XXSP,2012-10-14 15:35:00,
2012-10-14 08:40:00,56.5,55.1,29.93,ENE,67,0.0,0.0,96,0.00,,,0.00,WUHU21623XXSP,2012-10-14 15:40:00,
2012-10-14 08:45:00,56.5,55.3,29.93,ENE,67,0.0,0.0,96,0.00,,,0.00,WUHU21623XXSP,2012-10-14 15:45:00,
2012-10-14 08:50:00,56.5,55.3,29.93,ENE,67,0.0,0.0,96,0.00,,,0.00,WUHU21623XXSP,2012-10-14 15:50:00,
2012-10-14 08:55:00,56.5,55.3,29.93,ENE,67,0.0,0.0,96,0.00,,,0.00,WUHU21623XXSP,2012-10-14 15:55:00,
2012-10-14 09:00:00,56.5,55.3,29.93,ENE,67,0.0,0.0,96,0.00,,,0.00,WUHU21623XXSP,2012-10-14 16:00:00,
2012-10-14 09:05:00,56.5,55.3,29.93,ENE,67,0.0,0.0,96,0.00,,,0.00,WUHU21623XXSP,2012-10-14 16:05:00,
2012-10-14 09:10:00,56.5,55.3,29.92,ENE,67,0.0,0.0,96,0.00,,,0.00,WUHU21623XXSP,2012-10-14 16:10:00,
2012-10-14 09:15:00,56.5,55.3,29.92,SE,135,0.0,0.0,96,0.00,,,0.00,WUHU21623XXSP,2012-10-14 16:15:00,
2012-10-14 09:20:00,56.5,55.3,29.92,SE,135,0.0,0.0,96,0.00,,,0.00,WUHU21623XXSP,2012-10-14 16:20:00,
2012-10-14 09:25:00,56.5,55.3,29.91,SE,135,0.0,0.0,96,0.00,,,0.00,WUHU21623XXSP,2012-10-14 16:25:00,
2012-10-14 09:30:00,56.5,55.3,29.92,SSE,157,0.0,0.0,96,0.00,,,0.00,WUHU21623XXSP,2012-10-14 16:30:00,
2012-10-14 09:35:00,56.7,55.5,29.92,NE,45,0.0,0.0,96,0.00,,,0.00,WUHU21623XXSP,2012-10-14 16:35:00,
2012-10-14 09:40:00,56.8,55.7,29.92,NE,45,0.0,0.0,96,0.00,,,0.00,WUHU21623XXSP,2012-10-14 16:40:00,
2012-10-14 09:45:00,56.8,55.7,29.92,NE,45,0.0,0.0,96,0.00,,,0.00,WUHU21623XXSP,2012-10-14 16:45:00,
2012-10-14 09:50:00,56.8,55.7,29.92,NE,45,0.0,0.0,96,0.00,,,0.00,WUHU21623XXSP,2012-10-14 16:50:00,
2012-10-14 09:55:00,56.8,55.7,29.92,NE,45,0.0,0.0,96,0.00,,,0.00,WUHU21623XXSP,2012-10-14 16:55:00,
2012-10-14 10:00:00,56.8,55.7,29.92,NE,45,0.0,0.0,96,0.00,,,0.00,WUHU21623XXSP,2012-10-14 17:00:00,
2012-10-14 10:05:00,56.8,55.7,29.92,NE,45,0.0,0.0,96,0.00,,,0.00,WUHU21623XXSP,2012-10-14 17:05:00,
2012-10-14 10:10:00,56.8,55.7,29.93,NE,45,0.0,0.0,96,0.00,,,0.00,WUHU21623XXSP,2012-10-14 17:10:00,
2012-10-14 10:15:00,56.8,55.7,29.93,SE,135,0.0,0.0,96,0.00,,,0.00,WUHU21623XXSP,2012-10-14 17:15:00,
2012-10-14 10:20:00,56.8,55.7,29.93,SE,135,0.0,0.0,96,0.00,,,0.00,WUHU21623XXSP,2012-10-14 17:20:00,
2012-10-14 10:25:00,56.8,55.7,29.93,NNE,22,0.0,0.0,96,0.00,,,0.00,WUHU21623XXSP,2012-10-14 17:25:00,
2012-10-14 10:30:00,56.8,55.7,29.93,NW,315,0.0,0.0,96,0.00,,,0.00,WUHU21623XXSP,2012-10-14 17:30:00,
2012-10-14 10:35:00,57.0,55.9,29.92,ESE,112,0.0,0.0,96,0.00,,,0.00,WUHU21623XXSP,2012-10-14 17:35:00,
2012-10-14 10:40:00,57.4,56.0,29.92,East,90,0.0,0.0,96,0.00,,,0.00,WUHU21623XXSP,2012-10-14 17:40:00,
2012-10-14 10:45:00,57.4,56.2,29.92,West,270,0.0,0.0,96,0.00,,,0.00,WUHU21623XXSP,2012-10-14 17:45:00,
2012-10-14 10:50:00,57.6,56.4,29.93,SE,135,0.0,0.0,96,0.00,,,0.00,WUHU21623XXSP,2012-10-14 17:50:00,
2012-10-14 10:55:00,57.7,56.3,29.93,SSW,202,0.0,0.0,95,0.00,,,0.00,WUHU21623XXSP,2012-10-14 17:55:00,
2012-10-14 11:01:00,57.9,56.5,29.93,SSW,202,0.0,0.0,95,0.00,,,0.00,WUHU21623XXSP,2012-10-14 18:01:00,
2012-10-14 11:06:00,57.9,56.5,29.93,NNE,22,0.0,0.0,95,0.00,,,0.00,WUHU21623XXSP,2012-10-14 18:06:00,
2012-10-14 11:11:00,57.7,56.3,29.92,SE,135,0.0,0.0,95,0.00,,,0.00,WUHU21623XXSP,2012-10-14 18:11:00,
2012-10-14 11:16:00,57.7,56.3,29.92,ENE,67,0.0,0.0,95,0.00,,,0.00,WUHU21623XXSP,2012-10-14 18:16:00,
2012-10-14 11:21:00,57.9,56.5,29.93,ESE,112,0.0,0.0,95,0.00,,,0.00,WUHU21623XXSP,2012-10-14 18:21:00,
2012-10-14 11:26:00,57.9,56.5,29.93,ESE,112,0.0,0.0,95,0.00,,,0.00,WUHU21623XXSP,2012-10-14 18:26:00,
2012-10-14 11:31:00,57.9,56.2,29.93,ESE,112,0.0,0.0,94,0.00,,,0.00,WUHU21623XXSP,2012-10-14 18:31:00,
2012-10-14 11:36:00,57.9,56.2,29.93,NE,45,0.0,0.0,94,0.00,,,0.00,WUHU21623XXSP,2012-10-14 18:36:00,
2012-10-14 11:41:00,57.9,56.2,29.92,North,0,0.0,0.0,94,0.00,,,0.00,WUHU21623XXSP,2012-10-14 18:41:00,
2012-10-14 11:46:00,57.9,56.2,29.93,SE,135,0.0,0.0,94,0.00,,,0.00,WUHU21623XXSP,2012-10-14 18:46:00,
2012-10-14 11:51:00,57.9,56.2,29.93,SE,135,0.0,0.0,94,0.00,,,0.00,WUHU21623XXSP,2012-10-14 18:51:00,
2012-10-14 11:56:00,57.9,56.2,29.93,SE,135,0.0,0.0,94,0.00,,,0.00,WUHU21623XXSP,2012-10-14 18:56:00,
2012-10-14 12:01:00,58.1,56.4,29.93,SE,135,0.0,0.0,94,0.00,,,0.00,WUHU21623XXSP,2012-10-14 19:01:00,
2012-10-14 12:06:00,58.5,56.7,29.93,WNW,292,0.0,0.0,94,0.00,,,0.00,WUHU21623XXSP,2012-10-14 19:06:00,
2012-10-14 12:11:00,58.5,56.7,29.93,NNE,22,0.0,0.0,94,0.00,,,0.00,WUHU21623XXSP,2012-10-14 19:11:00,
2012-10-14 12:16:00,58.6,56.9,29.92,NNW,337,0.0,0.0,94,0.00,,,0.00,WUHU21623XXSP,2012-10-14 19:16:00,
2012-10-14 12:21:00,58.8,56.8,29.93,NNW,337,0.0,0.0,93,0.00,,,0.00,WUHU21623XXSP,2012-10-14 19:21:00,
2012-10-14 12:26:00,59.0,57.0,29.93,SSE,157,0.0,0.0,93,0.00,,,0.00,WUHU21623XXSP,2012-10-14 19:26:00,
2012-10-14 12:31:00,58.8,56.8,29.92,South,180,0.0,0.0,93,0.00,,,0.00,WUHU21623XXSP,2012-10-14 19:31:00,
2012-10-14 12:36:00,58.8,56.8,29.92,NNE,22,0.0,0.0,93,0.00,,,0.00,WUHU21623XXSP,2012-10-14 19:36:00,
2012-10-14 12:41:00,58.8,56.8,29.92,SE,135,0.0,0.0,93,0.00,,,0.00,WUHU21623XXSP,2012-10-14 19:41:00,
2012-10-14 12:46:00,59.2,56.9,29.93,NNE,22,0.0,0.0,92,0.00,,,0.00,WUHU21623XXSP,2012-10-14 19:46:00,
2012-10-14 12:51:00,59.2,56.9,29.93,SE,135,0.0,0.0,92,0.00,,,0.00,WUHU21623XXSP,2012-10-14 19:51:00,
2012-10-14 12:56:00,59.2,56.9,29.93,SSE,157,0.0,0.0,92,0.00,,,0.00,WUHU21623XXSP,2012-10-14 19:56:00,
2012-10-14 13:01:00,59.4,57.1,29.93,WNW,292,0.0,0.0,92,0.00,,,0.00,WUHU21623XXSP,2012-10-14 20:01:00,
2012-10-14 13:06:00,59.4,57.1,29.93,NE,45,0.0,0.0,92,0.00,,,0.00,WUHU21623XXSP,2012-10-14 20:06:00,
2012-10-14 13:11:00,59.4,57.1,29.93,NNE,22,0.0,0.0,92,0.00,,,0.00,WUHU21623XXSP,2012-10-14 20:11:00,
2012-10-14 13:16:00,59.2,57.1,29.93,NNE,22,0.0,0.0,92,0.00,,,0.00,WUHU21623XXSP,2012-10-14 20:16:00,
2012-10-14 13:21:00,59.2,56.9,29.93,SE,135,0.0,0.0,92,0.00,,,0.00,WUHU21623XXSP,2012-10-14 20:21:00,
2012-10-14 13:26:00,58.8,56.5,29.93,SE,135,0.0,0.0,92,0.00,,,0.00,WUHU21623XXSP,2012-10-14 20:26:00,
2012-10-14 13:31:00,58.8,56.8,29.93,SE,135,0.0,0.0,93,0.00,,,0.00,WUHU21623XXSP,2012-10-14 20:31:00,
2012-10-14 13:36:00,58.6,56.6,29.92,SE,135,0.0,0.0,93,0.00,,,0.00,WUHU21623XXSP,2012-10-14 20:36:00,
2012-10-14 13:41:00,58.6,56.6,29.92,SE,135,0.0,0.0,93,0.00,,,0.00,WUHU21623XXSP,2012-10-14 20:41:00,
2012-10-14 13:46:00,58.6,56.6,29.92,SE,135,0.0,0.0,93,0.00,,,0.00,WUHU21623XXSP,2012-10-14 20:46:00,
2012-10-14 13:51:00,58.5,56.7,29.92,SE,135,0.0,0.0,94,0.00,,,0.00,WUHU21623XXSP,2012-10-14 20:51:00,
2012-10-14 13:56:00,58.5,56.7,29.92,ENE,67,0.0,0.0,94,0.00,,,0.00,WUHU21623XXSP,2012-10-14 20:56:00,
2012-10-14 14:01:00,58.3,56.6,29.92,ENE,67,0.0,0.0,94,0.00,,,0.00,WUHU21623XXSP,2012-10-14 21:01:00,
2012-10-14 14:06:00,58.3,56.6,29.92,ENE,67,0.0,0.0,94,0.00,,,0.00,WUHU21623XXSP,2012-10-14 21:06:00,
2012-10-14 14:11:00,58.3,56.6,29.91,ENE,67,0.0,0.0,94,0.00,,,0.00,WUHU21623XXSP,2012-10-14 21:11:00,
2012-10-14 14:16:00,58.1,56.4,29.91,NE,45,0.0,0.0,94,0.00,,,0.00,WUHU21623XXSP,2012-10-14 21:16:00,
2012-10-14 14:21:00,58.1,56.4,29.91,ESE,112,0.0,0.0,94,0.00,,,0.00,WUHU21623XXSP,2012-10-14 21:21:00,
2012-10-14 14:26:00,58.1,56.7,29.91,East,90,0.0,0.0,95,0.00,,,0.00,WUHU21623XXSP,2012-10-14 21:26:00,
2012-10-14 14:31:00,58.1,56.7,29.92,ESE,112,0.0,0.0,95,0.00,,,0.00,WUHU21623XXSP,2012-10-14 21:31:00,
2012-10-14 14:36:00,58.1,56.7,29.91,SSE,157,0.0,0.0,95,0.00,,,0.00,WUHU21623XXSP,2012-10-14 21:36:00,
2012-10-14 14:41:00,58.1,56.7,29.91,SE,135,0.0,0.0,95,0.00,,,0.00,WUHU21623XXSP,2012-10-14 21:41:00,
2012-10-14 14:46:00,58.1,56.7,29.91,SSE,157,0.0,0.0,95,0.00,,,0.00,WUHU21623XXSP,2012-10-14 21:46:00,
2012-10-14 14:51:00,58.1,56.7,29.91,ESE,112,0.0,0.0,95,0.00,,,0.00,WUHU21623XXSP,2012-10-14 21:51:00,
2012-10-14 14:56:00,58.3,56.8,29.91,NNE,22,0.0,0.0,95,0.00,,,0.00,WUHU21623XXSP,2012-10-14 21:56:00,
2012-10-14 15:01:00,58.3,56.8,29.90,ENE,67,0.0,0.0,95,0.00,,,0.00,WUHU21623XXSP,2012-10-14 22:01:00,
2012-10-14 15:06:00,58.1,56.7,29.90,SE,135,0.0,0.0,95,0.00,,,0.00,WUHU21623XXSP,2012-10-14 22:06:00,
2012-10-14 15:11:00,58.1,56.7,29.90,ESE,112,0.0,0.0,95,0.00,,,0.00,WUHU21623XXSP,2012-10-14 22:11:00,
2012-10-14 15:16:00,58.1,56.7,29.90,NE,45,0.0,0.0,95,0.00,,,0.00,WUHU21623XXSP,2012-10-14 22:16:00,
2012-10-14 15:21:00,58.1,56.7,29.90,SE,135,0.0,0.0,95,0.00,,,0.00,WUHU21623XXSP,2012-10-14 22:21:00,
2012-10-14 15:26:00,58.1,56.7,29.90,South,180,0.0,0.0,95,0.00,,,0.00,WUHU21623XXSP,2012-10-14 22:26:00,
2012-10-14 15:31:00,58.1,56.7,29.91,SSW,202,0.0,0.0,95,0.00,,,0.00,WUHU21623XXSP,2012-10-14 22:31:00,
2012-10-14 15:36:00,58.1,56.7,29.91,SSE,157,0.0,0.0,95,0.00,,,0.00,WUHU21623XXSP,2012-10-14 22:36:00,
2012-10-14 15:41:00,58.1,56.7,29.91,SE,135,0.0,0.0,95,0.00,,,0.00,WUHU21623XXSP,2012-10-14 22:41:00,
2012-10-14 15:46:00,58.1,56.7,29.91,East,90,0.0,0.0,95,0.00,,,0.00,WUHU21623XXSP,2012-10-14 22:46:00,
2012-10-14 15:51:00,57.9,56.5,29.91,SSW,202,0.0,0.0,95,0.00,,,0.00,WUHU21623XXSP,2012-10-14 22:51:00,
2012-10-14 15:56:00,58.1,56.7,29.90,SE,135,0.0,0.0,95,0.00,,,0.00,WUHU21623XXSP,2012-10-14 22:56:00,
2012-10-14 16:01:00,57.9,56.5,29.89,SSE,157,0.0,0.0,95,0.00,,,0.00,WUHU21623XXSP,2012-10-14 23:01:00,
2012-10-14 16:06:00,57.9,56.5,29.89,SE,135,0.0,0.0,95,0.00,,,0.00,WUHU21623XXSP,2012-10-14 23:06:00,
2012-10-14 16:11:00,57.9,56.5,29.89,ESE,112,0.0,0.0,95,0.00,,,0.00,WUHU21623XXSP,2012-10-14 23:11:00,
2012-10-14 16:16:00,57.9,56.5,29.89,SE,135,0.0,0.0,95,0.00,,,0.00,WUHU21623XXSP,2012-10-14 23:16:00,
2012-10-14 16:21:00,57.9,56.5,29.89,ESE,112,0.0,0.0,95,0.00,,,0.00,WUHU21623XXSP,2012-10-14 23:21:00,
2012-10-14 16:26:00,57.9,56.5,29.89,SE,135,0.0,0.0,95,0.00,,,0.00,WUHU21623XXSP,2012-10-14 23:26:00,
2012-10-14 16:31:00,57.7,56.3,29.89,SSE,157,0.0,0.0,95,0.00,,,0.00,WUHU21623XXSP,2012-10-14 23:31:00,
2012-10-14 16:36:00,57.9,56.5,29.89,ESE,112,0.0,0.0,95,0.00,,,0.00,WUHU21623XXSP,2012-10-14 23:36:00,
2012-10-14 16:41:00,57.7,56.6,29.89,SE,135,0.0,0.0,96,0.00,,,0.00,WUHU21623XXSP,2012-10-14 23:41:00,
2012-10-14 16:46:00,57.7,56.6,29.89,SE,135,0.0,0.0,96,0.00,,,0.00,WUHU21623XXSP,2012-10-14 23:46:00,
2012-10-14 16:51:00,57.6,56.4,29.89,SE,135,0.0,0.0,96,0.00,,,0.00,WUHU21623XXSP,2012-10-14 23:51:00,
2012-10-14 16:56:00,57.7,56.6,29.89,North,0,0.0,0.0,96,0.00,,,0.00,WUHU21623XXSP,2012-10-14 23:56:00,
2012-10-14 17:01:00,57.6,56.4,29.89,NE,45,0.0,0.0,96,0.00,,,0.00,WUHU21623XXSP,2012-10-15 00:01:00,
2012-10-14 17:06:00,57.6,56.4,29.88,SE,135,0.0,0.0,96,0.00,,,0.00,WUHU21623XXSP,2012-10-15 00:06:00,
2012-10-14 17:11:00,57.7,56.6,29.89,ESE,112,0.0,0.0,96,0.00,,,0.00,WUHU21623XXSP,2012-10-15 00:11:00,
2012-10-14 17:16:00,57.6,56.4,29.88,SE,135,0.0,0.0,96,0.00,,,0.00,WUHU21623XXSP,2012-10-15 00:16:00,
2012-10-14 17:21:00,57.6,56.4,29.87,ESE,112,0.0,0.0,96,0.00,,,0.00,WUHU21623XXSP,2012-10-15 00:21:00,
2012-10-14 17:26:00,57.6,56.4,29.87,SSE,157,0.0,0.0,96,0.00,,,0.00,WUHU21623XXSP,2012-10-15 00:26:00,
2012-10-14 17:31:00,57.4,56.2,29.87,ESE,112,0.0,0.0,96,0.00,,,0.00,WUHU21623XXSP,2012-10-15 00:31:00,
2012-10-14 17:36:00,57.4,56.2,29.87,North,0,0.0,0.0,96,0.00,,,0.00,WUHU21623XXSP,2012-10-15 00:36:00,
2012-10-14 17:41:00,57.4,56.2,29.87,NNE,22,0.0,0.0,96,0.00,,,0.00,WUHU21623XXSP,2012-10-15 00:41:00,
2012-10-14 17:46:00,57.4,56.2,29.87,ESE,112,0.0,0.0,96,0.00,,,0.00,WUHU21623XXSP,2012-10-15 00:46:00,
2012-10-14 17:51:00,57.4,56.2,29.87,SE,135,0.0,0.0,96,0.00,,,0.00,WUHU21623XXSP,2012-10-15 00:51:00,
2012-10-14 17:56:00,57.2,56.2,29.87,SE,135,0.0,0.0,96,0.00,,,0.00,WUHU21623XXSP,2012-10-15 00:56:00,
2012-10-14 18:01:00,57.4,56.2,29.87,SE,135,0.0,0.0,96,0.00,,,0.00,WUHU21623XXSP,2012-10-15 01:01:00,
2012-10-14 18:06:00,57.0,55.9,29.87,SE,135,0.0,0.0,96,0.00,,,0.00,WUHU21623XXSP,2012-10-15 01:06:00,
2012-10-14 18:11:00,57.0,55.9,29.87,SE,135,0.0,0.0,96,0.00,,,0.00,WUHU21623XXSP,2012-10-15 01:11:00,
2012-10-14 18:16:00,57.0,55.9,29.87,SE,135,0.0,0.0,96,0.00,,,0.00,WUHU21623XXSP,2012-10-15 01:16:00,
2012-10-14 18:21:00,57.0,55.9,29.87,ESE,112,0.0,0.0,96,0.00,,,0.00,WUHU21623XXSP,2012-10-15 01:21:00,
2012-10-14 18:26:00,57.0,55.9,29.87,SE,135,0.0,0.0,96,0.00,,,0.00,WUHU21623XXSP,2012-10-15 01:26:00,
2012-10-14 18:31:00,57.0,55.9,29.87,ESE,112,0.0,0.0,96,0.00,,,0.00,WUHU21623XXSP,2012-10-15 01:31:00,
2012-10-14 18:36:00,57.0,55.9,29.87,NNE,22,0.0,0.0,96,0.00,,,0.00,WUHU21623XXSP,2012-10-15 01:36:00,
2012-10-14 18:41:00,57.0,55.9,29.87,NNE,22,0.0,0.0,96,0.00,,,0.00,WUHU21623XXSP,2012-10-15 01:41:00,
2012-10-14 18:46:00,57.0,55.9,29.87,East,90,0.0,0.0,96,0.00,,,0.00,WUHU21623XXSP,2012-10-15 01:46:00,
2012-10-14 18:51:00,57.0,55.9,29.86,ENE,67,0.0,0.0,96,0.00,,,0.00,WUHU21623XXSP,2012-10-15 01:51:00,
2012-10-14 18:56:00,57.0,55.9,29.86,ENE,67,0.0,0.0,96,0.00,,,0.00,WUHU21623XXSP,2012-10-15 01:56:00,
2012-10-14 19:01:00,57.0,55.9,29.86,SE,135,0.0,0.0,96,0.00,,,0.00,WUHU21623XXSP,2012-10-15 02:01:00,
2012-10-14 19:06:00,57.0,55.9,29.86,ENE,67,0.0,0.0,96,0.00,,,0.00,WUHU21623XXSP,2012-10-15 02:06:00,
2012-10-14 19:11:00,57.0,55.9,29.85,SE,135,0.0,0.0,96,0.00,,,0.00,WUHU21623XXSP,2012-10-15 02:11:00,
2012-10-14 19:16:00,57.0,55.9,29.85,ESE,112,0.0,0.0,96,0.00,,,0.00,WUHU21623XXSP,2012-10-15 02:16:00,
2012-10-14 19:21:00,57.0,55.9,29.84,SE,135,0.0,0.0,96,0.00,,,0.00,WUHU21623XXSP,2012-10-15 02:21:00,
2012-10-14 19:26:00,57.0,55.9,29.84,SE,135,0.0,0.0,96,0.00,,,0.00,WUHU21623XXSP,2012-10-15 02:26:00,
2012-10-14 19:31:00,56.8,55.7,29.84,SSE,157,0.0,0.0,96,0.00,,,0.00,WUHU21623XXSP,2012-10-15 02:31:00,
2012-10-14 19:36:00,56.8,55.7,29.84,SSE,157,0.0,0.0,96,0.00,,,0.00,WUHU21623XXSP,2012-10-15 02:36:00,
2012-10-14 19:41:00,56.8,55.7,29.84,NE,45,0.0,0.0,96,0.00,,,0.00,WUHU21623XXSP,2012-10-15 02:41:00,
2012-10-14 19:46:00,56.8,55.7,29.84,SE,135,0.0,0.0,96,0.00,,,0.00,WUHU21623XXSP,2012-10-15 02:46:00,
2012-10-14 19:51:00,56.8,55.7,29.84,East,90,0.0,0.0,96,0.00,,,0.00,WUHU21623XXSP,2012-10-15 02:51:00,
2012-10-14 19:56:00,56.8,55.7,29.84,SE,135,0.0,0.0,96,0.00,,,0.00,WUHU21623XXSP,2012-10-15 02:56:00,
2012-10-14 20:01:00,56.8,55.7,29.84,SE,135,0.0,0.0,96,0.00,,,0.00,WUHU21623XXSP,2012-10-15 03:01:00,
2012-10-14 20:06:00,56.8,55.7,29.84,SE,135,0.0,0.0,96,0.00,,,0.00,WUHU21623XXSP,2012-10-15 03:06:00,
2012-10-14 20:11:00,56.8,55.7,29.84,East,90,0.0,0.0,96,0.00,,,0.00,WUHU21623XXSP,2012-10-15 03:11:00,
2012-10-14 20:16:00,56.7,55.5,29.84,SE,135,0.0,0.0,96,0.00,,,0.00,WUHU21623XXSP,2012-10-15 03:16:00,
2012-10-14 20:21:00,56.5,55.3,29.84,SE,135,0.0,0.0,96,0.00,,,0.00,WUHU21623XXSP,2012-10-15 03:21:00,
2012-10-14 20:26:00,56.5,55.3,29.84,SE,135,0.0,0.0,96,0.00,,,0.00,WUHU21623XXSP,2012-10-15 03:26:00,
2012-10-14 20:31:00,56.5,55.3,29.84,SSE,157,0.0,0.0,96,0.00,,,0.00,WUHU21623XXSP,2012-10-15 03:31:00,
2012-10-14 20:36:00,56.5,55.3,29.84,SE,135,0.0,0.0,96,0.00,,,0.00,WUHU21623XXSP,2012-10-15 03:36:00,
2012-10-14 20:41:00,56.5,55.3,29.84,SE,135,0.0,0.0,96,0.00,,,0.00,WUHU21623XXSP,2012-10-15 03:41:00,
2012-10-14 20:46:00,56.5,55.3,29.84,ESE,112,0.0,0.0,96,0.00,,,0.00,WUHU21623XXSP,2012-10-15 03:46:00,
2012-10-14 20:51:00,56.5,55.3,29.84,SE,135,0.0,0.0,96,0.00,,,0.00,WUHU21623XXSP,2012-10-15 03:51:00,
2012-10-14 20:56:00,56.5,55.3,29.84,ENE,67,0.0,0.0,96,0.00,,,0.00,WUHU21623XXSP,2012-10-15 03:56:00,
2012-10-14 21:00:00,56.5,55.3,29.84,SE,135,0.0,0.0,96,0.00,,,0.00,WUHU21623XXSP,2012-10-15 04:00:00,
2012-10-14 21:01:00,56.5,55.3,29.84,SE,135,0.0,0.0,96,0.00,,,0.00,WUHU21623XXSP,2012-10-15 04:01:00,
2012-10-14 21:03:00,56.5,55.3,29.84,East,90,0.0,0.0,96,0.00,,,0.00,WUHU21623XXSP,2012-10-15 04:03:00,
2012-10-14 21:08:00,56.5,55.3,29.84,SE,135,0.0,0.0,96,0.00,,,0.00,WUHU21623XXSP,2012-10-15 04:08:00,
2012-10-14 21:13:00,56.5,55.3,29.84,SE,135,0.0,0.0,96,0.00,,,0.00,WUHU21623XXSP,2012-10-15 04:13:00,
2012-10-14 21:18:00,56.5,55.3,29.84,ESE,112,0.0,0.0,96,0.00,,,0.00,WUHU21623XXSP,2012-10-15 04:18:00,
2012-10-14 21:23:00,56.5,55.3,29.84,West,270,0.0,0.0,96,0.00,,,0.00,WUHU21623XXSP,2012-10-15 04:23:00,
2012-10-14 21:28:00,56.8,55.7,29.84,SE,135,0.0,0.0,96,0.00,,,0.00,WUHU21623XXSP,2012-10-15 04:28:00,
2012-10-14 21:33:00,56.8,55.7,29.84,WSW,247,0.0,0.0,96,0.00,,,0.00,WUHU21623XXSP,2012-10-15 04:33:00,
2012-10-14 21:38:00,56.8,55.7,29.84,South,180,0.0,0.0,96,0.00,,,0.00,WUHU21623XXSP,2012-10-15 04:38:00,
2012-10-14 21:43:00,56.8,55.7,29.84,SE,135,0.0,0.0,96,0.00,,,0.00,WUHU21623XXSP,2012-10-15 04:43:00,
2012-10-14 21:48:00,56.8,55.7,29.85,SSW,202,0.0,0.0,96,0.00,,,0.00,WUHU21623XXSP,2012-10-15 04:48:00,
2012-10-14 21:53:00,56.8,55.7,29.85,SSE,157,0.0,0.0,96,0.00,,,0.00,WUHU21623XXSP,2012-10-15 04:53:00,
2012-10-14 21:58:00,56.8,55.7,29.84,SSE,157,0.0,0.0,96,0.00,,,0.00,WUHU21623XXSP,2012-10-15 04:58:00,
2012-10-14 22:03:00,56.8,55.7,29.84,South,180,0.0,0.0,96,0.00,,,0.00,WUHU21623XXSP,2012-10-15 05:03:00,
2012-10-14 22:08:00,56.8,55.7,29.84,NE,45,0.0,0.0,96,0.00,,,0.00,WUHU21623XXSP,2012-10-15 05:08:00,
2012-10-14 22:13:00,56.8,55.7,29.84,NNE,22,0.0,0.0,96,0.00,,,0.00,WUHU21623XXSP,2012-10-15 05:13:00,
2012-10-14 22:18:00,56.8,55.7,29.84,SE,135,0.0,0.0,96,0.00,,,0.00,WUHU21623XXSP,2012-10-15 05:18:00,
2012-10-14 22:23:00,56.8,55.7,29.85,South,180,0.0,0.0,96,0.00,,,0.00,WUHU21623XXSP,2012-10-15 05:23:00,
2012-10-14 22:28:00,56.8,55.7,29.85,SE,135,0.0,0.0,96,0.00,,,0.00,WUHU21623XXSP,2012-10-15 05:28:00,
2012-10-14 22:33:00,56.7,55.5,29.85,SE,135,0.0,0.0,96,0.00,,,0.00,WUHU21623XXSP,2012-10-15 05:33:00,
2012-10-14 22:38:00,56.8,55.7,29.85,SE,135,0.0,0.0,96,0.00,,,0.00,WUHU21623XXSP,2012-10-15 05:38:00,
2012-10-14 22:43:00,56.7,55.5,29.85,North,0,0.0,0.0,96,0.00,,,0.00,WUHU21623XXSP,2012-10-15 05:43:00,
2012-10-14 22:48:00,56.7,55.5,29.85,SSE,157,0.0,0.0,96,0.00,,,0.00,WUHU21623XXSP,2012-10-15 05:48:00,
2012-10-14 22:53:00,56.7,55.5,29.85,SSE,157,0.0,0.0,96,0.00,,,0.00,WUHU21623XXSP,2012-10-15 05:53:00,
2012-10-14 22:58:00,56.7,55.5,29.85,SE,135,0.0,0.0,96,0.00,,,0.00,WUHU21623XXSP,2012-10-15 05:58:00,
2012-10-14 23:03:00,56.5,55.3,29.84,SSE,157,0.0,0.0,96,0.00,,,0.00,WUHU21623XXSP,2012-10-15 06:03:00,
2012-10-14 23:08:00,56.5,55.3,29.84,SSE,157,0.0,0.0,96,0.00,,,0.00,WUHU21623XXSP,2012-10-15 06:08:00,
2012-10-14 23:13:00,56.5,55.3,29.84,NW,315,0.0,0.0,96,0.00,,,0.00,WUHU21623XXSP,2012-10-15 06:13:00,
2012-10-14 23:18:00,56.5,55.3,29.84,SSE,157,0.0,0.0,96,0.00,,,0.00,WUHU21623XXSP,2012-10-15 06:18:00,
2012-10-14 23:23:00,56.5,55.3,29.84,SE,135,0.0,0.0,96,0.00,,,0.00,WUHU21623XXSP,2012-10-15 06:23:00,
2012-10-14 23:28:00,56.5,55.3,29.84,South,180,0.0,0.0,96,0.00,,,0.00,WUHU21623XXSP,2012-10-15 06:28:00,
2012-10-14 23:33:00,56.5,55.3,29.84,SE,135,0.0,0.0,96,0.00,,,0.00,WUHU21623XXSP,2012-10-15 06:33:00,
2012-10-14 23:38:00,56.5,55.3,29.84,SE,135,0.0,0.0,96,0.00,,,0.00,WUHU21623XXSP,2012-10-15 06:38:00,
2012-10-14 23:43:00,56.5,55.3,29.84,SSE,157,0.0,0.0,96,0.00,,,0.00,WUHU21623XXSP,2012-10-15 06:43:00,
2012-10-14 23:48:00,56.5,55.3,29.83,SSE,157,0.0,0.0,96,0.00,,,0.00,WUHU21623XXSP,2012-10-15 06:48:00,
2012-10-14 23:53:00,56.5,55.3,29.84,South,180,0.0,0.0,96,0.00,,,0.00,WUHU21623XXSP,2012-10-15 06:53:00,
2012-10-14 23:58:00,56.5,55.3,29.84,South,180,0.0,0.0,96,0.00,,,0.00,WUHU21623XXSP,2012-10-15 06:58:00,